Year,Month,Day,Hour,Minute,Value (Times are PST for temperature in C)
2017,03,19,10,30,5.40
2017,03,19,10,31,5.40
2017,03,19,10,32,5.50
2017,03,19,10,33,5.60
2017,03,19,10,34,5.60
2017,03,19,10,35,5.70
2017,03,19,10,36,5.80
2017,03,19,10,37,5.90
2017,03,19,10,38,5.90
2017,03,19,10,39,6.00
2017,03,19,10,40,6.10
2017,03,19,10,41,6.10
2017,03,19,10,42,6.10
2017,03,19,10,43,6.20
2017,03,19,10,44,6.30
2017,03,19,10,45,6.40
2017,03,19,10,46,6.50
2017,03,19,10,47,6.70
2017,03,19,10,48,6.70
2017,03,19,10,49,6.80
2017,03,19,10,50,6.80
2017,03,19,10,51,7.00
2017,03,19,10,52,7.00
2017,03,19,10,53,7.10
2017,03,19,10,54,7.10
2017,03,19,10,55,7.20
2017,03,19,10,56,7.20
2017,03,19,10,57,7.20
2017,03,19,10,58,7.20
2017,03,19,10,59,7.20
2017,03,19,11,00,7.20
2017,03,19,11,01,7.20
2017,03,19,11,02,7.20
2017,03,19,11,03,7.20
2017,03,19,11,04,7.10
2017,03,19,11,05,7.10
2017,03,19,11,06,7.10
2017,03,19,11,07,7.10
2017,03,19,11,08,7.00
2017,03,19,11,09,6.90
2017,03,19,11,10,6.70
2017,03,19,11,11,6.60
2017,03,19,11,12,6.60
2017,03,19,11,13,6.60
2017,03,19,11,14,6.70
2017,03,19,11,15,6.80
2017,03,19,11,16,6.90
2017,03,19,11,17,7.00
2017,03,19,11,18,7.10
2017,03,19,11,19,7.20
2017,03,19,11,20,7.40
2017,03,19,11,21,7.40
2017,03,19,11,22,7.50
2017,03,19,11,23,7.60
2017,03,19,11,24,7.70
2017,03,19,11,25,7.70
2017,03,19,11,26,7.70
2017,03,19,11,27,7.60
2017,03,19,11,28,7.50
2017,03,19,11,29,7.40
2017,03,19,11,30,7.40
2017,03,19,11,31,7.30
2017,03,19,11,32,7.40
2017,03,19,11,33,7.40
2017,03,19,11,34,7.40
2017,03,19,11,35,7.40
2017,03,19,11,36,7.40
2017,03,19,11,37,7.30
2017,03,19,11,38,7.30
2017,03,19,11,39,7.30
2017,03,19,11,40,7.40
2017,03,19,11,41,7.50
2017,03,19,11,42,7.50
2017,03,19,11,43,7.60
2017,03,19,11,44,7.70
2017,03,19,11,45,7.70
2017,03,19,11,46,7.70
2017,03,19,11,47,7.80
2017,03,19,11,48,7.80
2017,03,19,11,49,7.80
2017,03,19,11,50,7.80
2017,03,19,11,51,7.80
2017,03,19,11,52,7.70
2017,03,19,11,53,7.70
2017,03,19,11,54,7.70
2017,03,19,11,55,7.70
2017,03,19,11,56,7.70
2017,03,19,11,57,7.70
2017,03,19,11,58,7.70
2017,03,19,11,59,7.70
2017,03,19,12,00,7.60
2017,03,19,12,01,7.50
2017,03,19,12,02,7.50
2017,03,19,12,03,7.50
2017,03,19,12,04,7.50
2017,03,19,12,05,7.60
2017,03,19,12,06,7.50
2017,03,19,12,07,7.50
2017,03,19,12,08,7.60
2017,03,19,12,09,7.50
2017,03,19,12,10,7.50
2017,03,19,12,11,7.40
2017,03,19,12,12,7.40
2017,03,19,12,13,7.30
2017,03,19,12,14,7.30
2017,03,19,12,15,7.30
2017,03,19,12,16,7.40
2017,03,19,12,17,7.40
2017,03,19,12,18,7.50
2017,03,19,12,19,7.60
2017,03,19,12,20,7.70
2017,03,19,12,21,7.70
2017,03,19,12,22,7.70
2017,03,19,12,23,7.70
2017,03,19,12,24,7.80
2017,03,19,12,25,7.80
2017,03,19,12,26,7.80
2017,03,19,12,27,7.70
2017,03,19,12,28,7.70
2017,03,19,12,29,7.80
2017,03,19,12,30,7.80
2017,03,19,12,31,7.80
2017,03,19,12,32,7.80
2017,03,19,12,33,7.80
2017,03,19,12,34,7.60
2017,03,19,12,35,7.60
2017,03,19,12,36,7.70
2017,03,19,12,37,7.80
2017,03,19,12,38,7.70
2017,03,19,12,39,7.70
2017,03,19,12,40,7.80
2017,03,19,12,41,7.80
2017,03,19,12,42,7.90
2017,03,19,12,43,8.00
2017,03,19,12,44,8.00
2017,03,19,12,45,7.90
2017,03,19,12,46,7.80
2017,03,19,12,47,7.80
2017,03,19,12,48,7.90
2017,03,19,12,49,7.90
2017,03,19,12,50,8.00
2017,03,19,12,51,8.00
2017,03,19,12,52,8.00
2017,03,19,12,53,8.00
2017,03,19,12,54,7.90
2017,03,19,12,55,7.90
2017,03,19,12,56,7.80
2017,03,19,12,57,7.80
2017,03,19,12,58,7.80
2017,03,19,12,59,7.90
2017,03,19,13,00,7.90
2017,03,19,13,01,7.90
2017,03,19,13,02,7.90
2017,03,19,13,03,7.90
2017,03,19,13,04,8.00
2017,03,19,13,05,8.20
2017,03,19,13,06,8.30
2017,03,19,13,07,8.40
2017,03,19,13,08,8.40
2017,03,19,13,09,8.50
2017,03,19,13,10,8.50
2017,03,19,13,11,8.60
2017,03,19,13,12,8.60
2017,03,19,13,13,8.60
2017,03,19,13,14,8.60
2017,03,19,13,15,8.60
2017,03,19,13,16,8.60
2017,03,19,13,17,8.60
2017,03,19,13,18,8.60
2017,03,19,13,19,8.60
2017,03,19,13,20,8.60
2017,03,19,13,21,8.50
2017,03,19,13,22,8.50
2017,03,19,13,23,8.40
2017,03,19,13,24,8.40
2017,03,19,13,25,8.40
2017,03,19,13,26,8.50
2017,03,19,13,27,8.60
2017,03,19,13,28,8.60
2017,03,19,13,29,8.60
2017,03,19,13,30,8.60
2017,03,19,13,31,8.60
2017,03,19,13,32,8.60
2017,03,19,13,33,8.40
2017,03,19,13,34,8.30
2017,03,19,13,35,8.20
2017,03,19,13,36,8.20
2017,03,19,13,37,8.30
2017,03,19,13,38,8.30
2017,03,19,13,39,8.30
2017,03,19,13,40,8.30
2017,03,19,13,41,8.40
2017,03,19,13,42,8.50
2017,03,19,13,43,8.50
2017,03,19,13,44,8.50
2017,03,19,13,45,8.50
2017,03,19,13,46,8.40
2017,03,19,13,47,8.40
2017,03,19,13,48,8.30
2017,03,19,13,49,8.20
2017,03,19,13,50,8.20
2017,03,19,13,51,8.20
2017,03,19,13,52,8.20
2017,03,19,13,53,8.20
2017,03,19,13,54,8.30
2017,03,19,13,55,8.30
2017,03,19,13,56,8.30
2017,03,19,13,57,8.30
2017,03,19,13,58,8.00
2017,03,19,13,59,8.00
2017,03,19,14,00,7.90
2017,03,19,14,01,8.00
2017,03,19,14,02,8.10
2017,03,19,14,03,8.20
2017,03,19,14,04,8.20
2017,03,19,14,05,8.30
2017,03,19,14,06,8.30
2017,03,19,14,07,8.40
2017,03,19,14,08,8.40
2017,03,19,14,09,8.40
2017,03,19,14,10,8.40
2017,03,19,14,11,8.40
2017,03,19,14,12,8.40
2017,03,19,14,13,8.30
2017,03,19,14,14,8.30
2017,03,19,14,15,8.30
2017,03,19,14,16,8.40
2017,03,19,14,17,8.50
2017,03,19,14,18,8.60
2017,03,19,14,19,8.60
2017,03,19,14,20,8.60
2017,03,19,14,21,8.60
2017,03,19,14,22,8.70
2017,03,19,14,23,8.70
2017,03,19,14,24,8.70
2017,03,19,14,25,8.70
2017,03,19,14,26,8.70
2017,03,19,14,27,8.60
2017,03,19,14,28,8.60
2017,03,19,14,29,8.60
2017,03,19,14,30,8.60
2017,03,19,14,31,8.60
2017,03,19,14,32,8.60
2017,03,19,14,33,8.70
2017,03,19,14,34,8.70
2017,03,19,14,35,8.70
2017,03,19,14,36,8.70
2017,03,19,14,37,8.70
2017,03,19,14,38,8.70
2017,03,19,14,39,8.80
2017,03,19,14,40,8.80
2017,03,19,14,41,8.90
2017,03,19,14,42,8.90
2017,03,19,14,43,9.00
2017,03,19,14,44,9.00
2017,03,19,14,45,9.00
2017,03,19,14,46,9.00
2017,03,19,14,47,9.10
2017,03,19,14,48,9.10
2017,03,19,14,49,9.20
2017,03,19,14,50,9.30
2017,03,19,14,51,9.30
2017,03,19,14,52,9.30
2017,03,19,14,53,9.30
2017,03,19,14,54,9.30
2017,03,19,14,55,9.20
2017,03,19,14,56,9.20
2017,03,19,14,57,9.10
2017,03,19,14,58,9.00
2017,03,19,14,59,9.00
2017,03,19,15,00,8.90
2017,03,19,15,01,8.80
2017,03,19,15,02,8.90
2017,03,19,15,03,8.90
2017,03,19,15,04,8.80
2017,03,19,15,05,8.80
2017,03,19,15,06,8.80
2017,03,19,15,07,8.80
2017,03,19,15,08,8.80
2017,03,19,15,09,8.90
2017,03,19,15,10,8.90
2017,03,19,15,11,8.90
2017,03,19,15,12,8.90
2017,03,19,15,13,8.90
2017,03,19,15,14,9.00
2017,03,19,15,15,9.10
2017,03,19,15,16,9.10
2017,03,19,15,17,9.10
2017,03,19,15,18,9.10
2017,03,19,15,19,9.10
2017,03,19,15,20,9.00
2017,03,19,15,21,8.90
2017,03,19,15,22,8.90
2017,03,19,15,23,8.90
2017,03,19,15,24,9.00
2017,03,19,15,25,9.00
2017,03,19,15,26,9.00
2017,03,19,15,27,9.00
2017,03,19,15,28,9.00
2017,03,19,15,29,9.00
2017,03,19,15,30,8.90
2017,03,19,15,31,8.90
2017,03,19,15,32,8.80
2017,03,19,15,33,8.80
2017,03,19,15,34,8.80
2017,03,19,15,35,8.70
2017,03,19,15,36,8.70
2017,03,19,15,37,8.70
2017,03,19,15,38,8.70
2017,03,19,15,39,8.70
2017,03,19,15,40,8.70
2017,03,19,15,41,8.80
2017,03,19,15,42,8.80
2017,03,19,15,43,8.90
2017,03,19,15,44,9.00
2017,03,19,15,45,9.10
2017,03,19,15,46,9.10
2017,03,19,15,47,9.00
2017,03,19,15,48,9.00
2017,03,19,15,49,9.00
2017,03,19,15,50,9.10
2017,03,19,15,51,9.10
2017,03,19,15,52,9.10
2017,03,19,15,53,9.10
2017,03,19,15,54,9.20
2017,03,19,15,55,9.20
2017,03,19,15,56,9.20
2017,03,19,15,57,9.20
2017,03,19,15,58,9.10
2017,03,19,15,59,9.10
2017,03,19,16,00,9.10
2017,03,19,16,01,9.10
2017,03,19,16,02,9.10
2017,03,19,16,03,9.10
2017,03,19,16,04,9.10
2017,03,19,16,05,9.10
2017,03,19,16,06,9.00
2017,03,19,16,07,9.00
2017,03,19,16,08,9.10
2017,03,19,16,09,9.10
2017,03,19,16,10,9.10
2017,03,19,16,11,9.20
2017,03,19,16,12,9.20
2017,03,19,16,13,9.20
2017,03,19,16,14,9.30
2017,03,19,16,15,9.40
2017,03,19,16,16,9.50
2017,03,19,16,17,9.50
2017,03,19,16,18,9.60
2017,03,19,16,19,9.70
2017,03,19,16,20,9.70
2017,03,19,16,21,9.70
2017,03,19,16,22,9.70
2017,03,19,16,23,9.60
2017,03,19,16,24,9.50
2017,03,19,16,25,9.40
2017,03,19,16,26,9.40
2017,03,19,16,27,9.40
2017,03,19,16,28,9.30
2017,03,19,16,29,9.30
2017,03,19,16,30,9.20
2017,03,19,16,31,9.20
2017,03,19,16,32,9.20
2017,03,19,16,33,9.30
2017,03,19,16,34,9.20
2017,03,19,16,35,9.20
2017,03,19,16,36,9.20
2017,03,19,16,37,9.10
2017,03,19,16,38,9.00
2017,03,19,16,39,9.00
2017,03,19,16,40,9.00
2017,03,19,16,41,9.10
2017,03,19,16,42,9.10
2017,03,19,16,43,9.10
2017,03,19,16,44,9.10
2017,03,19,16,45,9.10
2017,03,19,16,46,9.10
2017,03,19,16,47,9.10
2017,03,19,16,48,9.20
2017,03,19,16,49,9.20
2017,03,19,16,50,9.20
2017,03,19,16,51,9.20
2017,03,19,16,52,9.20
2017,03,19,16,53,9.20
2017,03,19,16,54,9.20
2017,03,19,16,55,9.20
2017,03,19,16,56,9.30
2017,03,19,16,57,9.30
2017,03,19,16,58,9.30
2017,03,19,16,59,9.30
2017,03,19,17,00,9.30
2017,03,19,17,01,9.30
2017,03,19,17,02,9.30
2017,03,19,17,03,9.30
2017,03,19,17,04,9.30
2017,03,19,17,05,9.40
2017,03,19,17,06,9.40
2017,03,19,17,07,9.30
2017,03,19,17,08,9.30
2017,03,19,17,09,9.30
2017,03,19,17,10,9.30
2017,03,19,17,11,9.30
2017,03,19,17,12,9.30
2017,03,19,17,13,9.30
2017,03,19,17,14,9.30
2017,03,19,17,15,9.30
2017,03,19,17,16,9.30
2017,03,19,17,17,9.20
2017,03,19,17,18,9.20
2017,03,19,17,19,9.10
2017,03,19,17,20,9.00
2017,03,19,17,21,9.00
2017,03,19,17,22,8.90
2017,03,19,17,23,8.90
2017,03,19,17,24,8.80
2017,03,19,17,25,8.80
2017,03,19,17,26,8.80
2017,03,19,17,27,8.90
2017,03,19,17,28,8.90
2017,03,19,17,29,8.90
2017,03,19,17,30,9.00
2017,03,19,17,31,9.10
2017,03,19,17,32,9.00
2017,03,19,17,33,9.00
2017,03,19,17,34,9.00
2017,03,19,17,35,9.00
2017,03,19,17,36,9.00
2017,03,19,17,37,9.10
2017,03,19,17,38,9.10
2017,03,19,17,39,9.10
2017,03,19,17,40,9.10
2017,03,19,17,41,9.20
2017,03,19,17,42,9.10
2017,03,19,17,43,9.10
2017,03,19,17,44,9.10
2017,03,19,17,45,9.00
2017,03,19,17,46,9.00
2017,03,19,17,47,9.00
2017,03,19,17,48,9.00
2017,03,19,17,49,9.10
2017,03,19,17,50,9.10
2017,03,19,17,51,9.10
2017,03,19,17,52,9.20
2017,03,19,17,53,9.20
2017,03,19,17,54,9.20
2017,03,19,17,55,9.20
2017,03,19,17,56,9.20
2017,03,19,17,57,9.20
2017,03,19,17,58,9.20
2017,03,19,17,59,9.20
2017,03,19,18,00,9.20
2017,03,19,18,01,9.10
2017,03,19,18,02,9.10
2017,03,19,18,03,9.10
2017,03,19,18,04,9.00
2017,03,19,18,05,8.90
2017,03,19,18,06,8.90
2017,03,19,18,07,8.90
2017,03,19,18,08,8.80
2017,03,19,18,09,8.80
2017,03,19,18,10,8.80
2017,03,19,18,11,8.80
2017,03,19,18,12,8.80
2017,03,19,18,13,8.80
2017,03,19,18,14,8.80
2017,03,19,18,15,8.80
2017,03,19,18,16,8.80
2017,03,19,18,17,8.80
2017,03,19,18,18,8.80
2017,03,19,18,19,8.80
2017,03,19,18,20,8.80
2017,03,19,18,21,8.80
2017,03,19,18,22,8.80
2017,03,19,18,23,8.80
2017,03,19,18,24,8.70
2017,03,19,18,25,8.70
2017,03,19,18,26,8.70
2017,03,19,18,27,8.70
2017,03,19,18,28,8.70
2017,03,19,18,29,8.70
2017,03,19,18,30,8.60
2017,03,19,18,31,8.60
2017,03,19,18,32,8.60
2017,03,19,18,33,8.60
2017,03,19,18,34,8.50
2017,03,19,18,35,8.50
2017,03,19,18,36,8.40
2017,03,19,18,37,8.40
2017,03,19,18,38,8.30
2017,03,19,18,39,8.20
2017,03,19,18,40,8.10
2017,03,19,18,41,8.10
2017,03,19,18,42,8.10
2017,03,19,18,43,8.00
2017,03,19,18,44,8.00
2017,03,19,18,45,8.00
2017,03,19,18,46,8.00
2017,03,19,18,47,7.90
2017,03,19,18,48,7.90
2017,03,19,18,49,7.90
2017,03,19,18,50,7.90
2017,03,19,18,51,7.90
2017,03,19,18,52,7.90
2017,03,19,18,53,7.80
2017,03,19,18,54,7.80
2017,03,19,18,55,7.80
2017,03,19,18,56,7.80
2017,03,19,18,57,7.70
2017,03,19,18,58,7.70
2017,03,19,18,59,7.70
2017,03,19,19,00,7.60
2017,03,19,19,01,7.60
2017,03,19,19,02,7.60
2017,03,19,19,03,7.60
2017,03,19,19,04,7.60
2017,03,19,19,05,7.50
2017,03,19,19,06,7.50
2017,03,19,19,07,7.50
2017,03,19,19,08,7.50
2017,03,19,19,09,7.40
2017,03,19,19,10,7.40
2017,03,19,19,11,7.40
2017,03,19,19,12,7.40
2017,03,19,19,13,7.40
2017,03,19,19,14,7.40
2017,03,19,19,15,7.30
2017,03,19,19,16,7.30
2017,03,19,19,17,7.30
2017,03,19,19,18,7.20
2017,03,19,19,19,7.20
2017,03,19,19,20,7.20
2017,03,19,19,21,7.20
2017,03,19,19,22,7.10
2017,03,19,19,23,7.10
2017,03,19,19,24,7.10
2017,03,19,19,25,7.00
2017,03,19,19,26,7.00
2017,03,19,19,27,6.90
2017,03,19,19,28,6.90
2017,03,19,19,29,6.90
2017,03,19,19,30,6.90
2017,03,19,19,31,6.80
2017,03,19,19,32,6.80
2017,03,19,19,33,6.70
2017,03,19,19,34,6.70
2017,03,19,19,35,6.60
2017,03,19,19,36,6.50
2017,03,19,19,37,6.40
2017,03,19,19,38,6.30
2017,03,19,19,39,6.30
2017,03,19,19,40,6.20
2017,03,19,19,41,6.20
2017,03,19,19,42,6.10
2017,03,19,19,43,6.00
2017,03,19,19,44,5.90
2017,03,19,19,45,5.80
2017,03,19,19,46,5.80
2017,03,19,19,47,5.70
2017,03,19,19,48,5.70
2017,03,19,19,49,5.60
2017,03,19,19,50,5.50
2017,03,19,19,51,5.50
2017,03,19,19,52,5.40
2017,03,19,19,53,5.30
2017,03,19,19,54,5.30
2017,03,19,19,55,5.20
2017,03,19,19,56,5.20
2017,03,19,19,57,5.10
2017,03,19,19,58,5.00
2017,03,19,19,59,5.00
2017,03,19,20,00,4.90
2017,03,19,20,01,4.90
2017,03,19,20,02,4.80
2017,03,19,20,03,4.80
2017,03,19,20,04,4.70
2017,03,19,20,05,4.70
2017,03,19,20,06,4.60
2017,03,19,20,07,4.60
2017,03,19,20,08,4.50
2017,03,19,20,09,4.50
2017,03,19,20,10,4.40
2017,03,19,20,11,4.40
2017,03,19,20,12,4.30
2017,03,19,20,13,4.30
2017,03,19,20,14,4.20
2017,03,19,20,15,4.20
2017,03,19,20,16,4.20
2017,03,19,20,17,4.10
2017,03,19,20,18,4.10
2017,03,19,20,19,4.00
2017,03,19,20,20,4.00
2017,03,19,20,21,4.00
2017,03,19,20,22,3.90
2017,03,19,20,23,3.90
2017,03,19,20,24,3.90
2017,03,19,20,25,3.80
2017,03,19,20,26,3.80
2017,03,19,20,27,3.80
2017,03,19,20,28,3.70
2017,03,19,20,29,3.70
2017,03,19,20,30,3.60
2017,03,19,20,31,3.60
2017,03,19,20,32,3.60
2017,03,19,20,33,3.50
2017,03,19,20,34,3.50
2017,03,19,20,35,3.50
2017,03,19,20,36,3.40
2017,03,19,20,37,3.40
2017,03,19,20,38,3.40
2017,03,19,20,39,3.40
2017,03,19,20,40,3.40
2017,03,19,20,41,3.30
2017,03,19,20,42,3.30
2017,03,19,20,43,3.30
2017,03,19,20,44,3.20
2017,03,19,20,45,3.20
2017,03,19,20,46,3.20
2017,03,19,20,47,3.10
2017,03,19,20,48,3.10
2017,03,19,20,49,3.00
2017,03,19,20,50,3.00
2017,03,19,20,51,3.00
2017,03,19,20,52,2.90
2017,03,19,20,53,2.90
2017,03,19,20,54,2.80
2017,03,19,20,55,2.80
2017,03,19,20,56,2.80
2017,03,19,20,57,2.70
2017,03,19,20,58,2.70
2017,03,19,20,59,2.60
2017,03,19,21,00,2.60
2017,03,19,21,01,2.60
2017,03,19,21,02,2.60
2017,03,19,21,03,2.50
2017,03,19,21,04,2.50
2017,03,19,21,05,2.40
2017,03,19,21,06,2.40
2017,03,19,21,07,2.40
2017,03,19,21,08,2.40
2017,03,19,21,09,2.40
2017,03,19,21,10,2.30
2017,03,19,21,11,2.30
2017,03,19,21,12,2.30
2017,03,19,21,13,2.30
2017,03,19,21,14,2.30
2017,03,19,21,15,2.30
2017,03,19,21,16,2.20
2017,03,19,21,17,2.20
2017,03,19,21,18,2.20
2017,03,19,21,19,2.20
2017,03,19,21,20,2.20
2017,03,19,21,21,2.20
2017,03,19,21,22,2.20
2017,03,19,21,23,2.20
2017,03,19,21,24,2.20
2017,03,19,21,25,2.10
2017,03,19,21,26,2.00
2017,03,19,21,27,2.00
2017,03,19,21,28,1.90
2017,03,19,21,29,1.80
2017,03,19,21,30,1.80
2017,03,19,21,31,1.80
2017,03,19,21,32,1.70
2017,03,19,21,33,1.70
2017,03,19,21,34,1.70
2017,03,19,21,35,1.70
2017,03,19,21,36,1.60
2017,03,19,21,37,1.60
2017,03,19,21,38,1.60
2017,03,19,21,39,1.60
2017,03,19,21,40,1.60
2017,03,19,21,41,1.70
2017,03,19,21,42,1.70
2017,03,19,21,43,1.70
2017,03,19,21,44,1.70
2017,03,19,21,45,1.70
2017,03,19,21,46,1.70
2017,03,19,21,47,1.70
2017,03,19,21,48,1.70
2017,03,19,21,49,1.70
2017,03,19,21,50,1.70
2017,03,19,21,51,1.70
2017,03,19,21,52,1.70
2017,03,19,21,53,1.60
2017,03,19,21,54,1.60
2017,03,19,21,55,1.60
2017,03,19,21,56,1.60
2017,03,19,21,57,1.60
2017,03,19,21,58,1.60
2017,03,19,21,59,1.60
2017,03,19,22,00,1.60
2017,03,19,22,01,1.60
2017,03,19,22,02,1.60
2017,03,19,22,03,1.60
2017,03,19,22,04,1.50
2017,03,19,22,05,1.50
2017,03,19,22,06,1.50
2017,03,19,22,07,1.50
2017,03,19,22,08,1.60
2017,03,19,22,09,1.60
2017,03,19,22,10,1.60
2017,03,19,22,11,1.60
2017,03,19,22,12,1.60
2017,03,19,22,13,1.70
2017,03,19,22,14,1.70
2017,03,19,22,15,1.60
2017,03,19,22,16,1.60
2017,03,19,22,17,1.60
2017,03,19,22,18,1.60
2017,03,19,22,19,1.60
2017,03,19,22,20,1.60
2017,03,19,22,21,1.60
2017,03,19,22,22,1.60
2017,03,19,22,23,1.60
2017,03,19,22,24,1.60
2017,03,19,22,25,1.50
2017,03,19,22,26,1.50
2017,03,19,22,27,1.40
2017,03,19,22,28,1.40
2017,03,19,22,29,1.40
2017,03,19,22,30,1.40
2017,03,19,22,31,1.30
2017,03,19,22,32,1.30
2017,03,19,22,33,1.30
2017,03,19,22,34,1.30
2017,03,19,22,35,1.20
2017,03,19,22,36,1.20
2017,03,19,22,37,1.10
2017,03,19,22,38,1.10
2017,03,19,22,39,1.10
2017,03,19,22,40,1.00
2017,03,19,22,41,1.00
2017,03,19,22,42,0.90
2017,03,19,22,43,0.90
2017,03,19,22,44,0.80
2017,03,19,22,45,0.80
2017,03,19,22,46,0.70
2017,03,19,22,47,0.70
2017,03,19,22,48,0.70
2017,03,19,22,49,0.70
2017,03,19,22,50,0.70
2017,03,19,22,51,0.80
2017,03,19,22,52,0.80
2017,03,19,22,53,0.80
2017,03,19,22,54,0.90
2017,03,19,22,55,0.90
2017,03,19,22,56,0.90
2017,03,19,22,57,0.90
2017,03,19,22,58,0.90
2017,03,19,22,59,0.90
2017,03,19,23,00,0.90
2017,03,19,23,01,1.00
2017,03,19,23,02,1.00
2017,03,19,23,03,1.00
2017,03,19,23,04,1.10
2017,03,19,23,05,1.10
2017,03,19,23,06,1.20
2017,03,19,23,07,1.20
2017,03,19,23,08,1.20
2017,03,19,23,09,1.40
2017,03,19,23,10,1.50
2017,03,19,23,11,1.50
2017,03,19,23,12,1.60
2017,03,19,23,13,1.60
2017,03,19,23,14,1.60
2017,03,19,23,15,1.60
2017,03,19,23,16,1.60
2017,03,19,23,17,1.70
2017,03,19,23,18,1.70
2017,03,19,23,19,1.70
2017,03,19,23,20,1.70
2017,03,19,23,21,1.70
2017,03,19,23,22,1.70
2017,03,19,23,23,1.70
2017,03,19,23,24,1.70
2017,03,19,23,25,1.70
2017,03,19,23,26,1.80
2017,03,19,23,27,1.80
2017,03,19,23,28,1.80
2017,03,19,23,29,1.80
2017,03,19,23,30,1.80
2017,03,19,23,31,1.70
2017,03,19,23,32,1.70
2017,03,19,23,33,1.70
2017,03,19,23,34,1.70
2017,03,19,23,35,1.70
2017,03,19,23,36,1.70
2017,03,19,23,37,1.70
2017,03,19,23,38,1.70
2017,03,19,23,39,1.70
2017,03,19,23,40,1.70
2017,03,19,23,41,1.70
2017,03,19,23,42,1.70
2017,03,19,23,43,1.70
2017,03,19,23,44,1.70
2017,03,19,23,45,1.70
2017,03,19,23,46,1.70
2017,03,19,23,47,1.70
2017,03,19,23,48,1.70
2017,03,19,23,49,1.60
2017,03,19,23,50,1.60
2017,03,19,23,51,1.60
2017,03,19,23,52,1.60
2017,03,19,23,53,1.60
2017,03,19,23,54,1.60
2017,03,19,23,55,1.60
2017,03,19,23,56,1.60
2017,03,19,23,57,1.60
2017,03,19,23,58,1.60
2017,03,19,23,59,1.60
